TimeEDT,TemperatureF,Dew PointF,Humidity,Sea Level PressureIn,VisibilityMPH,Wind Direction,Wind SpeedMPH,Gust SpeedMPH,PrecipitationIn,Events,Conditions,WindDirDegrees,DateUTC
12:53 AM,66.9,63.0,87,29.94,10.0,WSW,4.6,-,N/A,,Clear,250,2013-06-12 04:53:00
1:53 AM,66.0,62.1,87,29.94,10.0,SW,3.5,-,N/A,,Clear,220,2013-06-12 05:53:00
2:53 AM,69.1,63.0,81,29.93,10.0,West,4.6,-,N/A,,Clear,270,2013-06-12 06:53:00
3:53 AM,70.0,62.1,76,29.93,10.0,West,5.8,-,N/A,,Clear,280,2013-06-12 07:53:00
4:53 AM,69.1,62.1,78,29.93,10.0,WNW,3.5,-,N/A,,Clear,290,2013-06-12 08:53:00
5:53 AM,68.0,62.1,81,29.94,10.0,West,3.5,-,N/A,,Clear,270,2013-06-12 09:53:00
6:53 AM,66.9,62.1,84,29.95,7.0,SW,3.5,-,N/A,,Clear,230,2013-06-12 10:53:00
7:53 AM,71.1,64.0,78,29.94,10.0,SW,4.6,-,N/A,,Clear,230,2013-06-12 11:53:00
8:53 AM,77.0,66.9,71,29.95,10.0,WSW,5.8,-,N/A,,Clear,240,2013-06-12 12:53:00
9:53 AM,82.0,66.0,58,29.94,9.0,WSW,6.9,-,N/A,,Clear,250,2013-06-12 13:53:00
10:53 AM,82.0,66.9,60,29.94,10.0,WSW,11.5,-,N/A,,Clear,240,2013-06-12 14:53:00
11:53 AM,84.0,70.0,63,29.93,10.0,SW,6.9,-,N/A,,Partly Cloudy,230,2013-06-12 15:53:00
12:53 PM,84.9,69.1,59,29.92,10.0,SW,9.2,-,N/A,,Clear,220,2013-06-12 16:53:00
1:53 PM,88.0,70.0,55,29.90,10.0,West,9.2,-,N/A,,Scattered Clouds,260,2013-06-12 17:53:00
2:53 PM,88.0,71.1,57,29.89,10.0,WSW,10.4,18.4,N/A,,Scattered Clouds,240,2013-06-12 18:53:00
3:53 PM,89.1,71.1,55,29.86,10.0,SW,9.2,-,N/A,,Clear,220,2013-06-12 19:53:00
5:15 PM,87.8,73.4,62,29.89,10.0,SSW,6.9,-,N/A,Thunderstorm,Thunderstorm,210,2013-06-12 21:15:00
5:42 PM,87.8,73.4,62,29.88,10.0,SW,8.1,-,N/A,,Clear,220,2013-06-12 21:42:00
5:53 PM,87.1,73.0,63,29.86,10.0,SW,5.8,-,N/A,,Clear,220,2013-06-12 21:53:00
6:53 PM,86.0,73.9,67,29.85,10.0,SW,6.9,-,N/A,,Clear,220,2013-06-12 22:53:00
7:53 PM,84.0,73.0,69,29.84,10.0,SSW,5.8,-,N/A,,Clear,210,2013-06-12 23:53:00
8:53 PM,81.0,72.0,74,29.84,10.0,SSW,3.5,-,N/A,,Clear,210,2013-06-13 00:53:00
9:53 PM,77.0,72.0,84,29.84,10.0,Calm,Calm,-,N/A,,Clear,0,2013-06-13 01:53:00
10:53 PM,77.0,73.0,88,29.85,10.0,Calm,Calm,-,N/A,,Clear,0,2013-06-13 02:53:00
11:53 PM,73.9,71.1,91,29.84,7.0,South,3.5,-,N/A,,Clear,190,2013-06-13 03:53:00